Hourly Data Report for December 30, 2004

SHERBROOKE A
QUEBEC

45°26'00.000" N
71°41'00.000" W
241.40 m
7028124
71610
YSC

Download Data

Hourly Data (December 2004)
Hourly Data Report for December 30, 2004
TIME
LST
Temp Definition
°C
Dew Point Definition
°C
Rel Hum Definition
%
Precip. Amount Definition
mm

Wind Dir Definition
10's deg

Wind Spd Definition
km/h
Visibility Definition
km
Stn Press Definition
kPa
Hmdx Definition


Wind Chill Definition


Weather Definition


00:00 -15.7 -17.7 85     0 15.0 99.73      
01:00 -17.7 -19.3 87     0 15.0 99.76      
02:00 -16.8 -18.6 86   12 6 15.0 99.83   -21  
03:00 -16.0 -17.8 86   9 4 15.0 99.85   -19  
04:00 -15.5 -17.4 85     0 15.0 99.89      
05:00 -15.6 -17.5 85   9 4 15.0 99.97   -19  
06:00 -16.8 -18.8 84   7 4 15.0 100.02   -20  
07:00 -18.7 -20.7 84     0 15.0 100.11      
08:00 -19.1 -20.9 86   14 6 24.1 100.22   -24 Mainly Clear
09:00 -16.0 -17.7 87   10 4 24.1 100.26   -19 Mainly Clear
10:00 -13.4 -15.0 88     0 3.2 100.34     Snow Showers
11:00 -10.6 -11.7 92     0 9.7 100.30     Ice Crystals
12:00 -8.0 -9.6 88     0 19.3 100.24     Clear
13:00 -4.8 -9.8 68   24 6 24.1 100.12   -8 Clear
14:00 -4.8 -10.8 63   29 6 24.1 100.17   -8 Clear
15:00 -3.9 -10.9 58   25 7 24.1 100.19   -7 Clear
16:00 -4.6 -10.5 63   29 4 24.1 100.23   -6 Mainly Clear
17:00 -10.3 -13.1 80   20 4 24.1 100.22   -13 Mainly Clear
18:00 -10.5 -12.5 85   7 4 15.0 100.19   -13  
19:00 -11.8 -13.5 87   4 6 15.0 100.23   -16  
20:00 -12.4 -14.0 88   9 7 15.0 100.27   -17  
21:00 -11.4 -13.2 86   11 9 15.0 100.27   -17  
22:00 -11.8 -13.7 86   9 7 15.0 100.28   -16  
23:00 -12.2 -14.3 84   9 9 15.0 100.22   -17  

Notes on Data Quality.

Legend

  • E = Estimated
  • M = Missing
  • NA = Not Available*
  • [empty] = Indicates an unobserved value
Date modified: